SHIYAN 10 (SY-10) (49258 NORAD) Tracking and Keplerian Element Data

This shows tracking and keplerian element data for the satellite.

Feedback or suggestion? Click here.




ElementValue
Catalog49258
NameSHIYAN 10 (SY-10)
Epoch Orbit37
Epoch Day287.84657938
Epoch Year2021
RAAN75.3911
Inclination51.0349
Eccentricity0.7530188
Argument of Perigee228.1354
Mean Anonmoly55.828
Mean Motion2.01190924
Decay Rate7.811E-05
L11 49258U 21087A 21287.84657938 .00007811 36568-6 34164-3 0 9998
L22 49258 51.0349 75.3911 7530188 228.1354 55.8280 2.01190924 371

Live tracking and technical data element details for SHIYAN 10 (SY-10) (NORAD 49258). SHIYAN 10 (SY-10) can be tracked NOW for your location showing map with azimuth and elevation plus other details from your city location.

Track the satellite on the map from your city or location and see movement details for azimuth, elevation, latitude, longitude, range, height, and movement on the map or in text.







IsCatalogInMostPopularTable: catalog: 49258, numindb: 48
Update: records affected: 1



GetName: 49258 SHIYAN 10 (SY-10)

Hit Count: updated at: Tue, 19 Oct 2021 08:10:48 GMT